SCP
1 1 1 1 0 0 0 0 0 0 0 0 0 0 0 0 0 0 0 0 0 0 0 0 0 0 0 0 0 0 0 0 0 0 0 0 0 0 0 0 0 0 0 0 0 1 1 1 1
1 1 1 0 0 0 0 0 0 0 0 0 0 0 0 0 0 0 0 0 0 0 0 0 0 0 0 0 0 0 0 0 0 0 0 0 0 0 0 0 0 0 0 0 0 0 0 0 0
1 1 0 0 0 0 0 0 0 0 0 0 0 0 0 0 0 0 0 0 0 0 0 0 0 0 0 0 0 0 0 0 0 0 0 0 0 0 0 0 0 0 0 0 0 0 0 0 0
1 0 0 0 0 0 0 0 0 0 0 0 0 0 0 0 0 0 0 0 0 0 0 0 1 1 1 1 0 0 0 0 0 0 0 0 0 0 0 0 0 0 0 0 0 0 0 0 0
0 0 0 0 0 0 0 0 0 0 0 0 0 0 0 0 0 0 0 0 0 0 0 0 1 1 1 1 1 1 0 0 0 0 0 0 0 0 0 0 0 0 0 0 0 0 0 0 0
0 0 0 0 0 0 0 0 0 0 0 0 0 0 0 0 0 0 1 1 1 0 0 1 1 1 1 1 2 1 1 1 0 0 0 0 0 0 0 0 0 0 0 0 0 0 0 0 0
0 0 0 0 0 0 0 0 1 1 0 0 0 0 0 0 0 1 1 1 1 0 0 1 1 1 1 1 2 1 1 1 0 0 0 0 0 0 0 0 0 0 0 0 0 0 0 0 0
0 0 0 0 0 0 0 0 1 1 1 0 0 0 0 0 0 1 1 1 0 0 0 0 1 1 1 1 1 1 1 1 1 0 0 0 0 0 0 0 0 0 0 0 0 0 0 0 0
0 0 0 0 1 1 1 1 1 1 1 0 0 0 0 0 1 1 1 1 0 0 0 0 0 1 1 1 1 1 1 1 1 1 1 1 1 1 0 0 0 0 0 0 0 0 0 0 0
0 0 0 0 1 1 1 0 0 0 0 0 0 0 0 0 1 1 1 0 0 0 0 0 0 0 1 1 1 1 1 1 1 1 1 1 1 1 1 0 0 0 0 0 0 0 0 0 0
0 0 0 1 1 1 0 0 0 0 0 0 0 0 1 1 1 0 0 0 0 0 0 0 0 0 1 1 1 1 1 1 1 1 1 1 1 1 1 1 0 0 1 1 1 0 0 0 0
0 0 0 1 1 1 0 0 0 0 0 0 0 0 0 0 0 0 0 0 0 0 0 0 0 0 0 1 1 1 1 1 1 1 1 1 1 1 1 1 1 1 1 1 1 1 0 0 0
0 1 1 1 1 0 0 0 0 0 0 0 0 0 0 0 0 0 0 0 0 0 0 0 0 0 0 0 0 1 1 1 1 1 1 1 1 1 1 1 1 1 1 1 1 1 0 0 0
1 1 1 1 0 0 0 0 0 0 0 0 0 0 0 0 0 0 0 0 0 0 0 0 0 0 0 0 0 0 0 1 1 1 1 1 1 1 1 1 1 1 1 1 1 0 0 0 0
1 1 1 1 0 0 0 0 0 0 0 0 0 0 0 0 0 0 0 0 0 0 0 0 0 0 0 0 0 0 0 1 1 1 1 1 1 1 1 1 1 1 1 1 1 1 1 0 0
0 0 0 0 0 0 0 0 0 0 0 0 0 0 0 0 0 0 0 0 0 0 0 0 0 0 0 0 0 0 0 0 1 1 1 1 1 1 1 1 1 1 1 1 1 1 1 1 0
0 0 0 0 0 0 0 0 0 0 0 0 0 0 0 0 0 0 0 0 0 0 0 0 0 0 0 0 0 0 0 0 1 1 1 1 1 1 1 1 1 1 1 1 1 1 1 1 0
0 0 0 0 0 0 0 0 0 0 0 0 0 0 0 0 0 0 0 0 0 0 0 0 0 0 0 0 0 0 0 0 0 1 1 1 1 1 1 1 1 1 1 1 2 1 1 1 1
0 0 0 0 0 0 0 0 0 0 0 0 0 0 0 0 0 0 0 0 0 0 0 0 0 0 0 0 0 0 0 0 0 0 1 1 1 1 1 1 1 1 1 2 2 1 1 1 1
0 0 0 0 0 0 0 0 0 0 0 0 0 0 0 0 0 0 0 0 0 0 0 0 0 0 0 0 0 0 0 0 0 0 0 1 1 1 1 1 1 1 1 1 1 1 1 1 1
0 0 0 0 0 0 0 0 0 0 0 0 0 0 0 0 0 0 0 0 0 0 0 0 0 0 0 0 0 0 0 0 0 0 0 0 1 1 1 1 1 1 1 1 1 1 1 1 1
0 0 0 0 0 0 0 0 0 0 0 0 0 0 0 0 0 0 0 0 0 0 0 0 0 0 0 0 0 0 0 0 0 0 0 0 0 0 1 1 1 1 1 1 1 1 1 1 1
0 0 0 0 0 0 0 0 0 0 0 0 0 0 0 0 0 0 0 0 0 0 0 0 0 0 0 0 0 0 0 0 0 0 0 0 0 0 0 1 1 1 2 1 1 1 1 1 2
0 0 0 0 0 0 0 0 0 0 0 0 0 0 0 0 0 0 0 0 0 0 0 0 0 0 0 0 0 0 0 0 0 0 0 0 0 0 0 1 1 1 2 2 2 1 1 1 1
0 0 0 0 0 0 0 0 0 0 0 0 0 0 0 0 0 0 0 0 0 0 0 0 0 0 0 0 0 0 0 0 0 0 0 0 0 0 0 0 1 1 1 2 2 2 1 1 1
0 0 0 0 0 0 0 0 0 0 0 0 0 0 0 0 0 0 0 0 0 0 0 0 0 0 0 0 0 0 0 0 0 0 0 0 0 0 0 0 0 1 1 1 2 2 1 1 1
0 0 0 0 0 0 0 0 0 0 0 0 0 0 0 0 0 0 0 0 0 0 0 0 0 0 0 0 0 0 0 0 0 0 0 0 0 0 0 0 0 0 1 1 1 1 1 1 2
0 0 0 0 0 0 0 0 0 0 0 0 0 0 0 0 0 0 0 0 0 0 0 0 0 0 0 0 0 0 0 0 0 0 0 0 0 0 0 0 0 0 0 1 1 1 1 1 2
0 0 0 0 0 0 0 0 0 0 0 0 0 0 0 0 0 0 0 0 0 0 0 0 0 0 0 0 0 0 0 0 0 0 0 0 0 0 0 0 0 0 0 0 1 1 1 1 2
0 0 0 0 0 0 0 0 0 0 0 0 0 0 0 0 0 0 0 0 0 0 0 0 0 0 0 0 0 0 0 0 0 0 0 0 0 0 0 0 0 0 0 0 1 1 1 1 1
Wind_Speed
7 5 3 1 4 5 4 3 3 6 5 6 9 9 7 6 4 5 3 11 13 11 8 10 12 12 11 11 10 10 9 9 8 7 7 6 6 6 5 5 5 5 5 5 5 5 6 6 5
4 4 2 3 6 4 3 4 7 6 5 6 9 9 7 7 7 7 5 10 13 12 8 8 12 11 11 10 9 9 8 8 7 7 6 6 6 5 5 4 4 4 4 4 4 4 5 5 4
4 3 2 4 4 3 2 3 6 8 7 6 6 6 5 4 5 4 8 13 12 11 9 9 13 12 11 10 9 8 8 8 7 7 6 6 6 5 5 4 4 4 4 4 4 4 5 5 4
3 3 4 5 6 3 2 3 6 7 8 7 6 6 5 4 3 8 14 14 13 11 10 11 14 13 12 11 10 9 9 8 7 7 6 6 6 5 5 4 4 4 3 4 3 3 4 4 4
3 5 6 4 5 4 4 5 9 10 6 8 9 7 5 7 7 11 13 13 12 11 10 11 16 15 14 12 12 11 10 9 8 8 7 7 6 6 5 5 5 4 4 4 4 4 4 4 4
5 4 4 3 3 3 4 5 9 11 9 7 6 6 4 7 7 4 7 8 9 9 8 8 14 14 13 13 13 12 12 11 10 9 9 8 7 7 6 6 5 5 5 5 4 4 5 5 4
5 4 3 3 2 3 2 4 7 6 8 7 5 4 4 9 8 7 8 7 6 4 3 2 5 8 11 12 13 13 13 12 11 11 10 9 9 8 8 7 7 6 6 6 6 6 6 6 5
6 6 4 2 2 2 5 4 7 9 7 6 7 6 4 5 6 8 10 10 9 8 6 3 1 1 3 6 12 13 13 13 13 12 12 11 10 10 9 9 8 8 8 8 7 7 7 7 7
6 6 3 3 3 0 4 3 6 7 8 8 7 5 2 3 5 8 9 8 8 8 6 5 5 4 3 4 7 10 11 12 12 10 12 10 5 5 6 9 10 10 10 9 9 9 9 8 7
6 5 5 5 6 5 3 6 5 6 7 6 6 6 4 5 8 9 8 7 6 5 4 4 4 5 5 4 3 2 3 4 5 4 6 5 4 5 7 8 13 13 12 11 11 10 9 7 3
6 5 4 3 6 6 5 6 5 5 6 3 2 3 4 7 7 7 6 4 4 3 3 3 2 3 3 3 2 1 1 2 3 4 5 5 4 4 5 4 7 8 10 6 7 7 4 3 3
7 5 6 5 6 4 5 5 6 5 2 1 1 2 4 6 6 5 5 4 4 4 4 3 2 2 2 2 2 2 1 2 2 3 5 4 3 4 4 4 4 4 4 4 4 3 4 5 5
7 7 9 12 14 11 12 8 6 3 1 2 3 5 6 6 6 5 5 5 5 5 5 4 4 3 3 2 2 2 2 2 3 2 3 4 4 4 4 3 3 4 4 4 4 4 5 5 6
8 11 11 10 11 7 11 6 5 1 1 3 5 5 6 6 6 7 7 7 6 6 6 5 5 4 3 3 2 2 2 3 3 2 3 4 3 3 3 3 4 4 5 5 4 5 5 5 5
10 9 6 4 7 6 9 7 3 1 4 6 6 6 7 6 7 6 6 6 6 6 7 7 6 5 5 4 4 3 3 3 3 3 4 4 3 4 3 3 4 4 5 5 4 5 3 4 5
6 5 2 3 5 5 7 4 1 1 6 6 5 5 6 6 7 6 7 7 7 7 8 7 7 6 5 5 5 4 3 3 3 3 3 4 4 4 3 4 4 4 4 4 4 4 3 4 4
3 1 2 1 3 5 6 4 2 2 7 5 4 5 5 6 7 7 7 7 8 8 8 8 7 7 6 6 5 4 3 3 3 3 3 4 4 4 3 4 4 4 4 4 5 4 3 3 4
1 1 1 2 3 6 7 5 2 3 7 5 4 5 5 5 5 5 6 7 7 7 7 7 7 7 6 5 4 3 3 3 3 3 4 5 4 4 4 4 4 4 3 3 4 4 4 3 3
3 3 3 2 5 6 7 6 3 2 4 5 4 4 4 3 3 5 6 7 7 8 8 7 7 7 6 4 4 4 4 4 3 3 4 5 5 5 4 4 4 4 4 5 5 4 5 4 2
8 7 4 2 2 5 6 4 2 2 3 4 4 3 3 3 5 6 6 6 7 7 7 7 7 7 7 5 4 3 4 4 4 3 4 5 5 5 5 5 5 4 4 5 6 5 4 4 4
6 4 3 2 2 5 7 2 1 1 2 3 3 2 2 3 3 4 5 6 6 7 7 7 7 8 7 7 4 4 3 3 3 4 4 4 5 5 5 5 5 5 5 5 6 6 7 5 4
1 1 2 2 3 3 5 4 5 3 1 1 1 2 2 2 2 3 5 6 6 6 6 6 7 7 7 7 5 5 4 4 4 4 4 5 5 5 5 5 6 6 5 6 6 6 5 5 4
3 2 1 0 1 1 1 4 4 3 2 1 1 0 1 1 1 3 4 5 5 5 5 5 6 7 7 7 6 6 5 4 4 4 5 5 4 4 4 4 5 5 5 6 7 6 6 6 6
1 5 5 5 5 2 3 5 5 4 5 3 1 0 0 1 2 3 4 4 4 5 5 5 6 7 7 7 7 6 7 7 7 6 6 5 4 4 4 4 4 5 5 6 7 7 8 7 6
6 6 5 5 4 5 1 3 5 4 5 5 4 2 1 1 2 3 4 5 5 6 5 5 6 6 7 7 7 7 7 6 6 6 5 5 4 4 5 4 4 4 4 5 5 6 7 7 7
1 6 6 3 3 4 2 1 4 4 5 5 4 3 1 2 3 3 4 4 5 5 5 5 5 6 7 7 7 7 7 5 5 6 5 5 4 5 6 5 4 3 3 3 4 4 5 5 7
2 1 5 5 1 1 2 2 2 2 3 3 3 2 2 2 3 4 4 4 4 4 4 4 4 5 6 6 6 6 7 6 6 7 6 5 5 5 6 5 5 5 4 2 1 2 4 4 6
1 2 5 3 1 3 3 3 5 6 7 5 4 3 3 3 4 5 4 4 4 3 3 3 3 4 5 6 5 5 6 6 6 6 7 7 7 7 7 7 6 7 6 5 2 1 1 2 3
2 2 4 3 4 4 3 7 6 9 8 7 6 5 5 5 6 5 5 4 3 3 2 3 3 3 4 5 5 5 6 6 6 6 7 7 7 8 8 8 8 8 8 7 4 3 2 0 1
2 3 4 3 1 2 3 8 3 7 7 7 7 6 5 6 6 5 5 4 3 3 2 2 2 3 3 3 4 5 5 5 6 6 7 7 7 7 7 7 8 8 8 7 6 5 4 2 1
Wind_Direction
181 159 130 112 56 52 54 8 56 67 55 48 65 74 77 55 83 130 139 143 138 147 156 153 151 146 143 142 142 143 143 142 142 141 139 135 132 128 125 120 117 113 111 110 105 107 110 107 101
154 147 148 67 76 63 17 12 62 73 124 101 69 71 72 67 78 97 117 142 142 147 152 155 153 149 146 144 144 144 146 147 148 149 149 147 146 143 141 139 133 127 122 120 117 119 126 124 119
148 166 92 60 73 93 65 34 84 76 60 71 72 49 56 73 85 108 148 147 145 150 156 160 157 155 153 152 151 152 153 155 158 160 161 161 160 156 154 151 149 142 138 138 134 135 141 141 139
122 63 51 66 67 40 74 77 84 78 48 45 81 58 39 35 77 136 150 154 153 157 161 166 164 164 163 163 163 165 166 169 172 174 175 174 172 170 168 166 162 158 158 158 157 157 159 160 161
82 65 50 59 59 23 23 51 80 77 72 63 77 84 46 16 85 135 154 160 157 160 166 172 172 172 173 174 176 177 179 182 185 186 186 186 186 184 183 182 179 174 175 176 177 182 182 182 185
69 62 63 58 56 21 9 33 81 89 90 70 65 83 60 23 53 109 145 150 153 158 165 176 180 180 182 184 186 187 189 190 192 193 192 193 196 195 194 194 191 188 187 188 191 198 199 201 207
109 101 93 100 86 22 16 38 47 69 60 25 13 68 40 22 26 54 72 78 77 92 119 180 191 193 196 197 199 199 199 199 199 199 199 199 201 203 204 204 202 202 200 200 201 208 212 213 220
120 104 89 62 79 25 335 45 54 41 48 24 28 56 24 359 25 58 62 59 56 50 42 20 356 256 229 220 213 211 210 209 207 207 206 207 208 209 212 211 212 213 211 210 210 214 218 221 228
92 82 115 164 144 161 325 47 64 47 64 55 52 61 47 4 41 60 59 52 47 43 34 23 16 354 320 263 232 222 220 220 217 215 214 212 212 213 216 218 216 220 219 217 217 219 222 227 235
85 111 182 186 152 143 56 42 74 59 49 44 43 43 44 40 48 52 50 46 42 35 29 29 19 356 341 313 284 245 226 225 221 217 216 209 204 210 219 225 226 224 223 221 222 225 227 229 236
85 132 149 144 139 133 105 58 39 94 53 32 38 21 26 42 46 51 50 44 37 27 19 17 14 355 350 337 333 318 278 245 231 226 219 211 208 213 221 215 231 228 223 220 225 230 229 224 224
90 83 119 128 135 109 96 99 66 60 106 197 102 63 50 44 40 38 40 31 16 13 359 345 345 343 342 345 337 323 313 280 252 239 229 218 210 210 215 216 213 208 205 202 210 218 230 235 236
112 116 99 105 99 97 95 92 94 51 57 71 71 59 53 50 41 31 31 30 18 9 353 338 331 332 328 336 323 321 292 279 265 264 250 226 221 218 215 219 212 207 201 200 208 216 226 235 241
124 116 121 121 112 103 100 88 83 44 41 54 53 52 49 48 42 33 25 19 13 4 350 339 333 330 328 318 303 288 276 272 272 265 266 243 220 217 211 219 222 216 205 204 208 215 218 229 236
108 104 97 116 113 128 104 62 51 1 80 64 52 48 43 38 38 32 20 15 8 358 350 343 339 350 336 317 302 297 284 280 270 263 264 259 238 220 210 213 221 220 209 203 210 224 218 234 239
75 89 125 179 140 142 100 103 294 77 90 69 54 47 42 34 34 28 22 14 6 358 352 346 348 345 335 324 309 298 290 287 278 272 266 261 251 230 214 213 221 217 208 197 201 208 212 234 242
52 137 209 188 156 125 108 142 227 104 100 84 62 49 45 34 26 20 18 14 6 359 351 347 342 341 335 327 317 308 300 289 279 277 271 266 261 246 227 225 223 208 205 202 209 203 193 213 229
284 263 170 162 130 109 113 141 172 111 104 93 69 54 46 36 19 10 9 9 2 355 352 351 347 344 340 334 325 317 312 299 284 273 269 268 259 249 239 238 232 215 207 205 203 195 192 200 208
101 92 109 125 135 112 128 142 160 125 98 90 75 61 52 33 4 8 4 1 359 355 356 355 352 345 345 338 330 319 311 301 295 283 277 278 269 255 237 238 235 221 214 211 203 191 188 200 188
77 81 75 38 114 110 123 123 153 154 131 127 109 80 51 25 7 0 357 355 352 349 350 350 348 341 337 326 309 286 286 283 276 283 289 277 272 264 252 232 229 222 220 220 207 193 190 196 182
73 111 161 204 48 90 108 80 208 206 100 91 87 81 54 40 12 346 342 341 341 343 344 343 337 336 334 330 322 319 315 309 313 309 297 284 277 265 257 246 234 227 216 221 212 199 192 193 194
145 185 169 154 122 204 157 178 235 210 115 78 49 51 35 20 353 336 334 334 333 329 331 333 333 333 334 336 338 336 328 313 298 298 292 294 284 275 265 254 243 236 223 220 219 208 195 181 186
220 257 291 108 138 307 133 140 249 184 190 230 230 105 27 354 342 333 325 322 319 322 326 329 335 333 335 339 339 337 331 310 302 308 313 311 303 289 280 262 249 242 231 222 215 208 200 191 184
14 22 23 48 67 324 240 155 237 219 200 194 202 211 0 350 347 329 318 318 316 319 326 332 336 333 337 341 342 344 340 336 335 336 333 326 314 305 301 285 263 250 237 228 220 211 205 201 192
58 64 31 14 12 262 243 140 235 220 186 174 176 194 232 263 299 308 316 318 316 318 325 331 335 330 333 339 343 342 340 336 335 332 327 328 326 319 312 308 290 265 245 233 221 211 209 202 198
56 128 139 182 236 284 350 231 254 204 177 166 169 176 208 259 275 288 295 300 305 313 321 329 333 330 334 340 339 339 342 338 336 334 332 331 326 323 327 328 328 321 289 248 221 212 212 206 206
72 124 170 145 250 305 298 309 314 181 185 180 185 185 223 262 275 278 289 294 295 305 309 315 328 333 335 338 338 341 346 347 347 345 348 346 345 349 353 357 1 1 355 337 239 212 213 205 205
129 138 72 85 79 314 293 246 234 208 213 205 202 211 234 261 275 279 282 280 279 281 295 321 331 329 329 339 344 348 347 349 351 358 1 1 360 2 4 11 11 10 7 2 357 298 244 201 201
34 61 87 112 149 160 280 270 227 194 194 194 208 217 231 249 262 270 274 275 272 282 304 322 329 332 336 341 344 354 351 352 1 8 6 5 7 11 16 16 17 18 14 8 9 10 27 104 179
150 150 133 133 251 173 204 270 258 177 180 184 204 222 235 248 259 263 266 276 272 264 270 291 307 319 323 339 354 357 358 3 9 7 4 8 12 13 17 18 20 19 16 9 13 15 17 29 90